Regional Weather Roundup
Issued by NWS

Home | Current Version | Previous Version | Graphics & Text | Print | Product List | Glossary On
Versions: 1 2 3 4 5 6 7 8 9 10 11 12 13 14 15 16 17 18 19 20 21 22 23 24 25 26 27 28 29 30 31 32 33 34 35 36 37 38 39 40 41 42 43 44 45 46 47 48 49 50
428
ASUS45 KCYS 282310
RWRWY

WYOMING REGIONAL WEATHER ROUNDUP
NATIONAL WEATHER SERVICE CHEYENNE WY
500 PM MDT THU APR 28 2016

NOTE:  "FAIR" INDICATES FEW OR NO CLOUDS BELOW 12,000 FEET
WITH NO SIGNIFICANT WEATHER AND/OR OBSTRUCTIONS TO VISIBILITY.

WYZ001-290000-
YELLOWSTONE NATIONAL PARK

CITY           SKY/WX    TMP DP  RH WIND       PRES   REMARKS
LK YELLOWSTONE   N/A     36  23  59 SE3       29.91R
W YELLOWSTONE  NOT AVBL

$$
WYZ002>013-054>058-071-098>099-290000-
NORTHERN WYOMING

CITY           SKY/WX    TMP DP  RH WIND       PRES   REMARKS
JACKSON        PTSUNNY   52  23  32 NE9       29.82
CODY           CLOUDY    39  28  65 N13       30.01S WCI  32
GREYBULL       CLOUDY    46  30  53 N8        30.00S
WORLAND        CLOUDY    42  30  62 SW5       30.00S
SHERIDAN       CLOUDY    38  33  82 W3        30.06S
BUFFALO        CLOUDY    36  30  79 N8        30.05R WCI  30
GILLETTE       CLOUDY    38  30  73 N5        30.04R WCI  34
HULETT         CLOUDY    37  32  81 E8        30.06R WCI  31
NEWCASTLE      CLOUDY    41  28  60 CALM      30.03R

$$
WYZ014>020-022>026-101>103-290000-
CENTRAL WYOMING

CITY           SKY/WX    TMP DP  RH WIND       PRES   REMARKS
BIG PINEY      PTSUNNY   41  26  55 S15G25    29.90R
PINEDALE       CLOUDY    37  28  70 MISG      29.89R
DUBOIS         CLOUDY    34  27  75 SE13G18   29.93S WCI  25
LANDER         CLOUDY    36  30  79 SW7       29.97R WCI  30
RIVERTON       CLOUDY    39  27  62 E12       29.99S WCI  32
CASPER         CLOUDY    35  26  69 E8        30.01R WCI  29
DOUGLAS        CLOUDY    38  27  64 CALM      30.03S

$$
WYZ021-027>030-104>119-290000-
SOUTHERN WYOMING

CITY           SKY/WX    TMP DP  RH WIND       PRES   REMARKS
EVANSTON       CLOUDY    36  27  69 E16G29    29.86R WCI  26
KEMMERER       LGT SNOW  32  30  93 E16G23    29.91R WCI  21
FORT BRIDGER   LGT SNOW  34  34 100 E14G21    29.92R WCI  24
ROCK SPRINGS   CLOUDY    34  28  79 NE23G30   29.91R WCI  22
DIXON          CLOUDY    45  37  72 W8        29.87R
RAWLINS        CLOUDY    32  28  85 NE21      29.92R WCI  20
SARATOGA       CLOUDY    36  32  87 N6        29.89R WCI  31
LARAMIE        CLOUDY    32  26  78 SE18      29.92R WCI  20
CHEYENNE       CLOUDY    35  32  88 SE7       29.97S WCI  29
TORRINGTON     LGT RAIN  37  34  89 S10       30.04R FOG     WCI  30
PINE BLUFFS    LGT RAIN  36  34  93 E8        30.00F WCI  29

$$




USA.gov is the U.S. government's official web portal to all federal, state and local government web resources and services.